Regional Weather Roundup
Issued by NWS

Home | Current Version | Previous Version | Graphics & Text | Print | Product List | Glossary On
Versions: 1 2 3 4 5 6 7 8 9 10 11 12 13 14 15 16 17 18 19 20 21 22 23 24 25 26 27 28 29 30 31 32 33 34 35 36 37 38 39 40 41 42 43 44 45 46 47 48 49 50
000
ASUS43 KDTX 100901
RWRMI
MICHIGAN HOURLY REGIONAL WEATHER ROUNDUP
NATIONAL WEATHER SERVICE DETROIT/PONTIAC MI
400 AM EST SAT DEC 10 2016

NOTE: "FAIR" INDICATES FEW OR NO CLOUDS BELOW 12,000 FEET WITH NO
SIGNIFICANT WEATHER AND/OR OBSTRUCTION TO VISIBILITY.

MIZ047>049-052>055-059>063-066>070-074>076-081>083-101000-
SOUTHEAST LOWER MICHIGAN

CITY           SKY/WX    TMP DP  RH WIND       PRES   REMARKS
ADRIAN         CLOUDY    22  17  81 W8        30.45S WCI  12
ALMA           CLOUDY    23  14  67 W10       30.40F WCI  13
ANN ARBOR      CLOUDY    22  19  89 SW9       30.41S WCI  12
BAD AXE        CLOUDY    24  18  78 W8        30.35S WCI  15
CARO           CLOUDY    24  17  75 W8        30.37S WCI  15
DETROIT CITY   CLOUDY    24  20  84 W8        30.41S WCI  15
DETROIT        LGT SNOW  24  20  84 SW13      30.43S FOG     WCI  12
FLINT          CLOUDY    24  16  71 W12       30.39S WCI  13
GROSSE ILE     CLOUDY    25  19  79 W9        30.42S WCI  15
HILLSDALE      FLURRIES  19  16  86 W7        30.41S WCI  10
HOWELL         CLOUDY    23  19  85 W7        30.39F WCI  14

CITY           SKY/WX    TMP DP  RH WIND       PRES   REMARKS
JACKSON        MOCLDY    20  16  84 SW10      30.42S WCI   9
LAMBERTVILLE   CLOUDY    25  18  75 W8        30.46R WCI  16
LANSING        PTCLDY    22  16  78 W8        30.41F WCI  12
LAPEER         NOT AVBL
MASON          CLOUDY    21  19  91 SW6       30.41S WCI  14
MONROE         CLOUDY    24  20  82 W10       30.43S WCI  14
MT. CLEMENS    CLOUDY    25  16  69 W10       30.38S WCI  15
PONTIAC        CLOUDY    23  17  78 W12       30.37S WCI  12
PORT HOPE        N/A     25  18  74 VRB7      30.32S WCI  17
PORT HURON     CLOUDY    25  18  74 W5        30.37S WCI  19
TRI CITIES     CLOUDY    24  17  74 W13       30.39S WCI  12
MIDLAND        CLOUDY    25  15  65 W9        30.38S WCI  15
TROY           CLOUDY    26  16  66 W10       30.42R WCI  15
SAGINAW HB     CLOUDY    27  16  63 W8        30.38S WCI  18
$$
MIZ043>046-050>051-056>058-064>065-071>073-077>080-101000-
SOUTHWEST LOWER MICHIGAN

CITY           SKY/WX    TMP DP  RH WIND       PRES   REMARKS
BATTLE CREEK   LGT SNOW  21  19  92 SW8       30.43S FOG     WCI  11
BENTON HARBOR  CLOUDY    26  14  60 W13       30.46S WCI  15
BIG RAPIDS     CLOUDY    21  13  70 W6        30.37F WCI  13
COLDWATER      FLURRIES  21  18  87 SW8       30.44F WCI  11
FREMONT        LGT SNOW  19  17  91 NW3       30.41S
HOLLAND        FLURRIES  25  19  78 W7        30.43F WCI  17
GRAND RAPIDS   LGT SNOW  21  17  84 NW3       30.42F FOG
IONIA          CLOUDY    21  15  76 W8        30.40F WCI  12
KALAMAZOO      LGT SNOW  22  17  81 SW8       30.43F VSB 1   WCI  12
LUDINGTON      CLOUDY    23  13  65 NW10      30.40F WCI  12
MARSHALL       LGT SNOW  21  19  91 SW6       30.42F WCI  13
MOUNT PLEASANT CLOUDY    23  14  67 W9G16     30.38S WCI  13
MUSKEGON       LGT SNOW  24  20  84 W15G22    30.43S VSB 3/4 WCI  11
SOUTH HAVEN    LGT SNOW  26  18  71 W12G17    30.45S WCI  15
$$
MIZ016>042-101000-
NORTHERN LOWER MICHIGAN

CITY           SKY/WX    TMP DP  RH WIND       PRES   REMARKS
ALPENA         CLOUDY    22  18  85 SW5       30.32S WCI  16
BEAVER ISLAND  CLOUDY    20  12  69 W7G18     30.33F WCI  11
BELLAIRE       FLURRIES  23  19  83 CALM      30.35S
CADILLAC       FLURRIES  19  13  79 W8        30.32F WCI   8
CHARLEVOIX     LGT SNOW  24  17  74 W17G24    30.35S WCI  10
FRANKFORT      CLOUDY    23  14  66 W12       30.38F WCI  12
GAYLORD        LGT SNOW  20  16  84 W8        30.28S FOG     WCI  10
GRAYLING       CLOUDY    17  14  86 W7        30.32S WCI   8
HARBOR SPRINGS CLOUDY    22  13  70 NW13      30.31F WCI  10
HOUGHTON LAKE  CLOUDY    19  16  88 W13       30.34R WCI   6
MANISTEE       FLURRIES  22  13  68 W13       30.40S WCI  10
OSCODA         CLOUDY    24  18  78 MISG      30.33S
PELLSTON       CLOUDY    21  12  68 NW12      30.32S WCI   9
ROGERS CITY    LGT SNOW  22  19  88 W5        30.32S WCI  15
TRAVERSE CITY  CLOUDY    22  12  65 SW6       30.37R WCI  14
$$
MIZ007>008-015-101000-
EASTERN UPPER MICHIGAN

CITY           SKY/WX    TMP DP  RH WIND       PRES   REMARKS
KINROSS        CLOUDY    14  11  87 SW6       30.28F WCI   5
MACKINAC ISLAN FLURRIES  22  15  75 W12G17    30.30S WCI  10
NEWBERRY       MOCLDY    11   8  87 W12       30.28S WCI  -3
S. S. MARIE    PTCLDY    15  12  88 S5        30.28F WCI   8
MUNISING         N/A     10   2  69 SW5       30.34F WCI   2
$$
MIZ004>006-011>014-085-101000-
CENTRAL UPPER MICHIGAN

CITY           SKY/WX    TMP DP  RH WIND       PRES   REMARKS
MANISTIQUE     CLEAR     10   5  78 W12G17    30.34F WCI  -4
ESCANABA       CLEAR     13   5  70 W10       30.38F WCI   0
MENOMINEE      FLURRIES  18  10  71 VRB5      30.41S WCI  11
SAWYER-GWINN   CLEAR      7   2  78 W12       30.31S WCI  -8
$$
MIZ001>003-009>011-084-101000-
WESTERN UPPER MICHIGAN

CITY           SKY/WX    TMP DP  RH WIND       PRES   REMARKS
IRON MOUNTAIN  CLEAR     10  -2  58 W10       30.35S WCI  -4
HOUGHTON       LGT SNOW  13   7  77 W12       30.30S WCI  -1
COPPER HARBOR    N/A     22  15  75 N16G23    30.31S WCI   8
IRONWOOD       LGT SNOW   7   3  84 W10       30.39S FOG     WCI  -8
$$

ABBREVIATIONS USED IN REMARKS
   TC - TEMPERATURE IN CELSIUS
  WCI - WIND CHILL INDEX
   HX - HEAT INDEX
  VSB - VISIBILITY




USA.gov is the U.S. government's official web portal to all federal, state and local government web resources and services.